[[[{"header":{"parameterUnit":"kt","parameterCategory":2,"dx":1,"dy":1,"la1":30.253999710083008,"la2":30.299108505249023,"lo1":-89.0895004272461,"lo2":-89.04439544677734,"nx":28,"ny":28,"refTime":"2022-09-25T21:00:00:Z","depth":0,"parameterNumber":1,"parameterNumberName":"U-component_of_WINDS"},"data":[-6.8186,-6.8282,-6.8268,-6.8371,-6.8375,-6.8443,-6.8462,-6.8485,-6.8499,-6.8577,-6.862,-6.8613,-6.8621,-6.8667,-6.8711,-6.8707,-6.8728,-6.8773,-6.8761,-6.8571,-6.8544,-6.8518,-6.8495,-6.8777,-6.8778,-6.896,-6.8962,-6.8963,-6.8049,-6.8055,-6.8105,-6.8143,-6.8186,-6.8133,-6.8159,-6.8198,-6.8259,-6.8277,-6.8318,-6.8385,-6.8435,-6.8427,-6.8473,-6.8517,-6.8495,-6.8531,-6.8528,-6.853,-6.8326,-6.8302,-6.8548,-6.8548,-6.8548,-6.8548,-6.8548,-6.8548,-6.7797,-6.7855,-6.787,-6.7924,-6.7938,-6.7964,-6.8017,-6.8008,-6.8056,-6.8102,-6.8073,-6.8142,-6.8157,-6.8203,-6.8215,-6.8268,-6.8225,-6.8259,-6.8268,-6.8278,-6.8291,-6.8033,-6.8274,-6.8274,-6.8273,-6.8272,-6.8272,0,-6.7608,-6.7591,-6.7638,-6.768,-6.7718,-6.775,-6.7775,-6.7807,-6.7765,-6.7806,-6.7864,-6.7895,-6.7955,-6.8008,-6.8047,-6.8051,-6.8001,-6.7993,-6.8017,-6.8033,-6.8043,-6.804,-6.7711,-6.7986,-6.7984,-6.7982,-6.798,-6.7979,-6.7353,-6.7423,-6.7429,-6.7464,-6.7474,-6.7531,-6.7561,-6.7518,-6.7552,-6.7577,-6.763,-6.7681,-6.7721,-6.7816,-6.7804,-6.7848,-6.7824,-6.7932,-6.7831,-6.7843,-6.7828,-6.7825,-6.7832,-6.7953,-6.7956,-6.7959,-6.7961,0,-6.7212,-6.7186,-6.7288,-6.7287,-6.7289,-6.7363,-6.7362,-6.7418,-6.7402,-6.7477,-6.7491,-6.7467,-6.7524,-6.7494,-6.7553,-6.7536,-6.7658,-6.7633,-6.7654,-6.7647,-6.7741,-6.7734,-6.8049,-6.8089,-6.7793,-6.7796,-6.7799,0,-6.6985,-6.7077,-6.7033,-6.7094,-6.7194,-6.7149,-6.725,-6.7246,-6.7257,-6.7315,-6.7252,-6.7308,-6.726,-6.7311,-6.7285,-6.738,-6.739,-6.7383,-6.7375,-6.739,-6.7391,-6.7408,-6.7395,-6.7353,-6.7352,-6.735,-6.7349,0,-6.6768,-6.6851,-6.6949,-6.6963,-6.6971,-6.7018,-6.7023,-6.7035,-6.7065,-6.7098,-6.7117,-6.7159,-6.7182,-6.7215,-6.7182,-6.7115,-6.7296,-6.7197,-6.7289,-6.729,-6.7332,-6.733,-6.7616,-6.7347,-6.7347,-6.7346,-6.7345,0,-6.658,-6.6616,-6.6761,-6.6766,-6.679,-6.6854,-6.6892,-6.694,-6.6956,-6.6944,-6.697,-6.6924,-6.7003,-6.6907,-6.7015,-6.6937,-6.6964,-6.6964,-6.697,-6.6976,-6.687,-6.7037,-6.7311,-6.7339,-6.6981,-6.6978,-6.6975,0,-6.6339,-6.6479,-6.644,-6.6579,-6.6639,-6.6564,-6.6634,-6.6651,-6.664,-6.6689,-6.6676,-6.6732,-6.6654,-6.6667,-6.6725,-6.6714,-6.6815,-6.6699,-6.6772,-6.6775,-6.6771,-6.7022,-6.7072,-6.7254,-6.6935,-6.694,-6.6943,0,-6.6149,-6.6158,-6.6185,-6.62,-6.6214,-6.6264,-6.6344,-6.6389,-6.6424,-6.6449,-6.6515,-6.6592,-6.6537,-6.6559,-6.6526,-6.6587,-6.6746,-6.6519,-6.6519,-6.6563,-6.6912,-6.6959,-6.699,-6.671,-6.6714,-6.6718,-6.6911,0,-6.5876,-6.5941,-6.6013,-6.6048,-6.6081,-6.6165,-6.6133,-6.6172,-6.6136,-6.6123,-6.6219,-6.6224,-6.627,-6.6295,-6.6261,-6.6411,-6.6382,-6.6322,-6.6227,-6.6391,-6.6454,-6.648,-6.6136,-6.6133,-6.613,-6.6128,0,0,-6.5652,-6.5745,-6.57,-6.5776,-6.5802,-6.5722,-6.5815,-6.583,-6.5863,-6.5882,-6.5828,-6.5938,-6.5945,-6.6065,-6.6114,-6.6132,-6.6156,-6.61,-6.6313,-6.6334,-6.6353,-6.6421,-6.6448,-6.6124,-6.6123,-6.6122,-6.6121,0,-6.5546,-6.5554,-6.5647,-6.566,-6.5679,-6.5659,-6.5682,-6.5686,-6.5681,-6.5775,-6.5708,-6.5761,-6.585,-6.5866,-6.5886,-6.6084,-6.6031,-6.61,-6.6218,-6.6289,-6.6313,-6.6334,-6.6406,-6.6432,-6.6115,-6.6115,-6.6116,0,-6.5354,-6.5357,-6.5398,-6.5451,-6.5462,-6.5525,-6.5417,-6.5488,-6.5534,-6.5443,-6.5537,-6.5535,-6.5553,-6.5671,-6.5722,-6.5675,-6.5919,-6.5835,-6.585,-6.5856,-6.5922,-6.5951,-6.5977,-6.5637,-6.5635,-6.5634,0,0,-6.5266,-6.5326,-6.5315,-6.5425,-6.5437,-6.541,-6.5439,-6.5407,-6.5425,-6.5432,-6.5429,-6.5448,-6.5499,-6.5534,-6.558,-6.5713,-6.5714,-6.5778,-6.58,-6.5819,-6.5834,-6.5906,-6.5935,-6.5628,-6.5628,-6.5628,0,0,-6.5224,-6.5216,-6.5177,-6.53,-6.532,-6.5316,-6.5385,-6.5337,-6.5375,-6.5361,-6.531,-6.5313,-6.5422,-6.5423,-6.5349,-6.5545,-6.5452,-6.5469,-6.5541,-6.5569,-6.5591,-6.5589,-6.524,0,0,0,0,0,-6.5098,-6.5217,-6.5182,-6.5198,-6.5264,-6.5336,-6.5344,-6.5304,-6.5239,-6.5294,-6.5284,-6.5224,-6.5372,-6.5306,-6.5323,-6.5405,-6.5554,-6.5567,-6.558,-6.5704,-6.5734,-6.5759,0,0,0,0,0,0,-6.5104,-6.5123,-6.5179,-6.5181,-6.5195,-6.5331,-6.5212,-6.5205,-6.5232,-6.522,-6.5228,-6.5224,-6.5192,-6.5295,-6.5311,-6.539,-6.5235,-6.5559,-6.557,-6.558,-6.5714,-6.5739,-6.5759,0,0,0,0,0,-6.5108,-6.5124,-6.524,-6.5179,-6.5191,-6.5167,-6.5208,-6.52,-6.5221,-6.5205,-6.5199,-6.5188,-6.5195,-6.5205,-6.5304,-6.5384,-6.5224,-6.523,-6.5566,-6.5575,-6.5583,-6.5726,0,0,0,0,0,0,-6.5112,-6.5118,-6.5242,-6.5244,-6.5131,-6.5158,-6.5161,-6.5197,-6.5203,-6.5199,-6.5162,-6.5152,-6.5199,-6.5206,-6.5214,-6.5384,-6.5215,-6.5221,-6.5225,-6.5573,-6.558,-6.5586,0,0,0,0,0,0,-6.5109,-6.512,-6.5243,-6.5185,-6.518,-6.5151,-6.5154,-6.5232,-6.5204,-6.516,-6.5151,-6.5157,-6.5186,-6.5207,-6.5213,-6.5337,-6.5208,-6.5214,-6.5218,-6.522,-6.5579,-6.5584,0,0,0,0,0,0,-6.5113,-6.5123,-6.5184,-6.518,-6.5176,-6.5199,-6.5219,-6.5289,-6.5155,-6.5161,-6.5141,-6.5135,-6.519,-6.5195,-6.5213,-6.5334,-6.5336,-6.5208,-6.5212,-6.5215,-6.5217,0,0,0,0,0,0,0,-6.5116,-6.5061,-6.5228,-6.5177,-6.5172,-6.5266,-6.5266,-6.5267,-6.5153,-6.5148,-6.5143,-6.5138,-6.5176,-6.5182,-6.5188,-6.5333,0,0,-6.5208,-6.5211,0,0,0,0,0,0,0,0,-6.5056,-6.506,-6.5228,-6.5229,-6.5229,-6.5266,-6.5266,-6.5267,-6.5152,-6.5148,-6.5144,-6.514,-6.5177,-6.5182,-6.5188,0,0,0,0,0,0,0,0,0,0,0,0,0,0,0,-6.5228,-6.5229,0,-6.5266,-6.5266,-6.5267,-6.5152,-6.5148,-6.5145,-6.5141,-6.5179,-6.5183,-6.5187,0,0,0,0,0,0,0,0,0,0,0,0,0,0,0,0,0,0,0,0,0,0,0,0,0,0,0,0,0,0,0,0,0,0,0,0,0,0,0,0,0,0,0,0,0,0,0,0,0,0,0,0,0,0,0,0,0,0,0,0,0,0,0,0,0,0,0,0,0]}],[{"header":{"parameterUnit":"kt","parameterCategory":2,"dx":1,"dy":1,"la1":30.253999710083008,"la2":30.299108505249023,"lo1":-89.0895004272461,"lo2":-89.04439544677734,"nx":28,"ny":28,"refTime":"2022-09-25T21:00:00:Z","depth":0,"parameterNumber":2,"parameterNumberName":"V-component_of_WINDS"},"data":[-12.3375,-12.3475,-12.3475,-12.3588,-12.3606,-12.3682,-12.3709,-12.3742,-12.3768,-12.3856,-12.3906,-12.3912,-12.3934,-12.3991,-12.4043,-12.4043,-12.4066,-12.4103,-12.4098,-12.3934,-12.3911,-12.3889,-12.3867,-12.4108,-12.4108,-12.4268,-12.4269,-12.4271,-12.3259,-12.3279,-12.3339,-12.3396,-12.3446,-12.341,-12.3451,-12.3495,-12.3562,-12.3594,-12.3642,-12.3718,-12.3776,-12.3785,-12.3839,-12.3883,-12.3868,-12.3898,-12.3895,-12.3899,-12.3724,-12.37,-12.391,-12.391,-12.391,-12.391,-12.391,-12.391,-12.3048,-12.3108,-12.3142,-12.3206,-12.3233,-12.327,-12.3325,-12.3333,-12.3388,-12.3447,-12.3432,-12.3506,-12.3535,-12.3597,-12.3616,-12.3673,-12.3638,-12.3669,-12.3677,-12.3686,-12.3697,-12.347,-12.3681,-12.3681,-12.368,-12.368,-12.3679,0,-12.2893,-12.2889,-12.2945,-12.3001,-12.3047,-12.3089,-12.3126,-12.316,-12.3144,-12.319,-12.3256,-12.3293,-12.3364,-12.3423,-12.3472,-12.3484,-12.3448,-12.3443,-12.3465,-12.3475,-12.3479,-12.3479,-12.3195,-12.3437,-12.3434,-12.3433,-12.3432,-12.3431,-12.2681,-12.275,-12.2783,-12.2822,-12.2842,-12.2905,-12.2942,-12.2922,-12.2962,-12.3002,-12.3054,-12.3113,-12.316,-12.3262,-12.3264,-12.3316,-12.3298,-12.3391,-12.3305,-12.3313,-12.3301,-12.3298,-12.3305,-12.3408,-12.3411,-12.3414,-12.3416,0,-12.2562,-12.2559,-12.2663,-12.2688,-12.2696,-12.2768,-12.2787,-12.2843,-12.2842,-12.2919,-12.2935,-12.2932,-12.2995,-12.2982,-12.3049,-12.304,-12.3157,-12.3137,-12.3148,-12.3144,-12.3227,-12.322,-12.3495,-12.3531,-12.3279,-12.3281,-12.3283,0,-12.238,-12.247,-12.2459,-12.2519,-12.2618,-12.2596,-12.2694,-12.2702,-12.2726,-12.2786,-12.2743,-12.28,-12.2774,-12.2829,-12.2816,-12.2908,-12.2919,-12.2918,-12.2914,-12.2923,-12.2923,-12.2942,-12.293,-12.2899,-12.2898,-12.2896,-12.2895,0,-12.2195,-12.2292,-12.2391,-12.2412,-12.2445,-12.2491,-12.2506,-12.2532,-12.2566,-12.2608,-12.263,-12.2679,-12.2706,-12.2745,-12.2728,-12.267,-12.2839,-12.2756,-12.2838,-12.2839,-12.2876,-12.2874,-12.3121,-12.2894,-12.2893,-12.2893,-12.2892,0,-12.2047,-12.2093,-12.2236,-12.2262,-12.2288,-12.2351,-12.24,-12.2452,-12.2481,-12.2478,-12.251,-12.2479,-12.2557,-12.2476,-12.2584,-12.2514,-12.2543,-12.2548,-12.2554,-12.256,-12.247,-12.2613,-12.2849,-12.2874,-12.2567,-12.2564,-12.2561,0,-12.1837,-12.1979,-12.1962,-12.2096,-12.216,-12.2109,-12.2178,-12.2206,-12.2207,-12.2259,-12.2258,-12.2317,-12.2254,-12.227,-12.2325,-12.2326,-12.2416,-12.2313,-12.2387,-12.239,-12.2383,-12.26,-12.2639,-12.2799,-12.2526,-12.253,-12.2533,0,-12.1674,-12.1713,-12.1738,-12.1762,-12.1795,-12.1846,-12.1926,-12.198,-12.2016,-12.205,-12.2116,-12.2196,-12.2152,-12.2178,-12.2157,-12.2215,-12.2354,-12.2159,-12.2159,-12.2196,-12.2507,-12.2544,-12.2571,-12.2327,-12.2331,-12.2334,-12.2505,0,-12.1454,-12.1523,-12.159,-12.164,-12.1678,-12.176,-12.1748,-12.1789,-12.1766,-12.1764,-12.1859,-12.1874,-12.1926,-12.1952,-12.1928,-12.2065,-12.2039,-12.1991,-12.1911,-12.2053,-12.2109,-12.2131,-12.1829,-12.1827,-12.1825,-12.1823,0,0,-12.1254,-12.1353,-12.1329,-12.1406,-12.1436,-12.1381,-12.147,-12.1492,-12.1538,-12.1559,-12.1515,-12.1631,-12.1644,-12.176,-12.1803,-12.1823,-12.1846,-12.1796,-12.1985,-12.2003,-12.202,-12.208,-12.2104,-12.1819,-12.1818,-12.1818,-12.1817,0,-12.1172,-12.1191,-12.128,-12.1303,-12.1336,-12.133,-12.1351,-12.1372,-12.1375,-12.1467,-12.1417,-12.1471,-12.1563,-12.1585,-12.1608,-12.1782,-12.1741,-12.1799,-12.1899,-12.1965,-12.1986,-12.2004,-12.2067,-12.209,-12.1812,-12.1812,-12.1812,0,-12.1009,-12.1027,-12.1068,-12.1134,-12.1154,-12.1219,-12.1133,-12.1204,-12.1251,-12.1182,-12.1274,-12.128,-12.1307,-12.1417,-12.1466,-12.1426,-12.1646,-12.1572,-12.1585,-12.159,-12.1653,-12.1678,-12.17,-12.1405,-12.1404,-12.1402,0,0,-12.0939,-12.1002,-12.1013,-12.1115,-12.1131,-12.1123,-12.1155,-12.1135,-12.1162,-12.1173,-12.1179,-12.1206,-12.1258,-12.1293,-12.1342,-12.1465,-12.1468,-12.1523,-12.1542,-12.1558,-12.1571,-12.1638,-12.1663,-12.1397,-12.1397,-12.1397,0,0,-12.0904,-12.0922,-12.0894,-12.1012,-12.1041,-12.1055,-12.1118,-12.1083,-12.1126,-12.1114,-12.1081,-12.1086,-12.1189,-12.1195,-12.113,-12.1313,-12.1234,-12.1249,-12.1304,-12.1328,-12.1347,-12.1343,-12.1041,0,0,0,0,0,-12.0813,-12.092,-12.0895,-12.0912,-12.0993,-12.107,-12.108,-12.1056,-12.1002,-12.1052,-12.1052,-12.1005,-12.1154,-12.1095,-12.1112,-12.1185,-12.1332,-12.1344,-12.1355,-12.1455,-12.1481,-12.1502,0,0,0,0,0,0,-12.0819,-12.0841,-12.0892,-12.0912,-12.093,-12.1066,-12.0969,-12.0965,-12.0996,-12.0986,-12.1007,-12.1005,-12.0985,-12.1085,-12.11,-12.117,-12.1036,-12.1337,-12.1347,-12.1355,-12.1464,-12.1485,-12.1502,0,0,0,0,0,-12.0824,-12.0842,-12.0978,-12.091,-12.0926,-12.092,-12.0964,-12.0961,-12.0984,-12.0983,-12.0981,-12.0963,-12.0988,-12.0999,-12.1094,-12.1164,-12.1025,-12.1031,-12.1343,-12.1351,-12.1358,-12.1474,0,0,0,0,0,0,-12.0828,-12.0838,-12.0981,-12.0985,-12.0868,-12.0912,-12.0918,-12.0957,-12.0978,-12.0977,-12.0938,-12.093,-12.0991,-12.0999,-12.1008,-12.1163,-12.1016,-12.1022,-12.1026,-12.1349,-12.1355,-12.136,0,0,0,0,0,0,-12.0828,-12.0842,-12.0983,-12.0931,-12.0928,-12.0905,-12.0911,-12.0986,-12.0979,-12.0931,-12.0925,-12.0934,-12.0976,-12.1,-12.1006,-12.1125,-12.101,-12.1015,-12.1019,-12.1022,-12.1354,-12.1359,0,0,0,0,0,0,-12.0834,-12.0845,-12.0929,-12.0928,-12.0925,-12.0965,-12.0971,-12.1054,-12.0938,-12.0931,-12.0926,-12.0921,-12.0979,-12.0984,-12.1006,-12.1122,-12.1125,-12.101,-12.1014,-12.1016,-12.1018,0,0,0,0,0,0,0,-12.0838,-12.0768,-12.0959,-12.0925,-12.0923,-12.102,-12.1021,-12.1022,-12.0936,-12.0932,-12.0927,-12.0923,-12.0977,-12.0983,-12.099,-12.112,0,0,-12.1009,-12.1012,0,0,0,0,0,0,0,0,-12.0762,-12.0766,-12.0959,-12.096,-12.0961,-12.102,-12.102,-12.1021,-12.0936,-12.0932,-12.0928,-12.0925,-12.0979,-12.0984,-12.0989,0,0,0,0,0,0,0,0,0,0,0,0,0,0,0,-12.0959,-12.096,0,-12.102,-12.102,-12.1021,-12.0935,-12.0932,-12.0929,-12.0926,-12.098,-12.0984,-12.0989,0,0,0,0,0,0,0,0,0,0,0,0,0,0,0,0,0,0,0,0,0,0,0,0,0,0,0,0,0,0,0,0,0,0,0,0,0,0,0,0,0,0,0,0,0,0,0,0,0,0,0,0,0,0,0,0,0,0,0,0,0,0,0,0,0,0,0,0,0]}]]]